contact:dominique.lefevre@mio.osupytheas.fr, maurice.libes@osupytheas.fr, didier.mallarino@osupytheas.fr
Project:EMSO http://www.emso-fr.org/EMSO-France
Depth: 2436.0 m
Title:EMSO Ligure Ouest : Data MII capteur OXYGEN
DateTime,Latitude,Longitude,Optode-Type,Optode_Serial,Oxygen,Saturation_Oxygen,Temperature
DateTime,Latitude,Longitude,Optode-Type,Optode_Serial,µmol.l-1,%,degC
2017-10-08T00:02:00,42.805,6.029,4330,1995,200.518,61.318,13.285
2017-10-08T00:05:00,42.805,6.029,4330,1995,200.502,61.313,13.286
2017-10-08T00:08:00,42.805,6.029,4330,1995,200.540,61.325,13.286
2017-10-08T00:11:00,42.805,6.029,4330,1995,200.453,61.298,13.286
2017-10-08T00:14:00,42.805,6.029,4330,1995,200.450,61.297,13.286
2017-10-08T00:17:00,42.805,6.029,4330,1995,200.449,61.297,13.285
2017-10-08T00:20:00,42.805,6.029,4330,1995,200.510,61.315,13.285
2017-10-08T00:23:00,42.805,6.029,4330,1995,200.620,61.349,13.286
2017-10-08T00:26:00,42.805,6.029,4330,1995,200.674,61.365,13.285
2017-10-08T00:29:00,42.805,6.029,4330,1995,200.684,61.368,13.285
2017-10-08T00:32:00,42.805,6.029,4330,1995,200.685,61.369,13.285
2017-10-08T00:35:00,42.805,6.029,4330,1995,200.639,61.355,13.285
2017-10-08T00:38:00,42.805,6.029,4330,1995,200.651,61.358,13.285
2017-10-08T00:41:00,42.805,6.029,4330,1995,200.642,61.355,13.285
2017-10-08T00:44:00,42.805,6.029,4330,1995,200.678,61.367,13.285
2017-10-08T00:47:00,42.805,6.029,4330,1995,200.649,61.358,13.286
2017-10-08T00:50:00,42.805,6.029,4330,1995,200.687,61.369,13.285
2017-10-08T00:53:00,42.805,6.029,4330,1995,200.682,61.368,13.285
2017-10-08T00:56:00,42.805,6.029,4330,1995,200.632,61.353,13.285
2017-10-08T00:59:00,42.805,6.029,4330,1995,200.632,61.352,13.285
2017-10-08T01:02:00,42.805,6.029,4330,1995,200.683,61.368,13.286
2017-10-08T01:05:00,42.805,6.029,4330,1995,200.695,61.372,13.286
2017-10-08T01:08:00,42.805,6.029,4330,1995,200.679,61.367,13.285
2017-10-08T01:11:00,42.805,6.029,4330,1995,200.682,61.368,13.285
2017-10-08T01:14:00,42.805,6.029,4330,1995,200.722,61.380,13.285
2017-10-08T01:17:00,42.805,6.029,4330,1995,200.681,61.367,13.285
2017-10-08T01:20:00,42.805,6.029,4330,1995,200.765,61.393,13.285
2017-10-08T01:23:00,42.805,6.029,4330,1995,200.791,61.401,13.285
2017-10-08T01:26:00,42.805,6.029,4330,1995,200.809,61.406,13.285
2017-10-08T01:29:00,42.805,6.029,4330,1995,200.785,61.399,13.285
2017-10-08T01:32:00,42.805,6.029,4330,1995,200.776,61.396,13.285
2017-10-08T01:35:00,42.805,6.029,4330,1995,200.759,61.391,13.285
2017-10-08T01:38:00,42.805,6.029,4330,1995,200.756,61.390,13.285
2017-10-08T01:41:00,42.805,6.029,4330,1995,200.764,61.393,13.285
2017-10-08T01:44:00,42.805,6.029,4330,1995,200.774,61.396,13.285
2017-10-08T01:47:00,42.805,6.029,4330,1995,200.744,61.387,13.285
2017-10-08T01:50:00,42.805,6.029,4330,1995,200.758,61.391,13.285
2017-10-08T01:53:00,42.805,6.029,4330,1995,200.696,61.372,13.285
2017-10-08T01:56:00,42.805,6.029,4330,1995,200.734,61.384,13.285
2017-10-08T01:59:00,42.805,6.029,4330,1995,200.733,61.383,13.285
2017-10-08T02:02:00,42.805,6.029,4330,1995,200.779,61.397,13.285
2017-10-08T02:05:00,42.805,6.029,4330,1995,200.712,61.377,13.285
2017-10-08T02:08:00,42.805,6.029,4330,1995,200.726,61.381,13.285
2017-10-08T02:11:00,42.805,6.029,4330,1995,200.668,61.363,13.285
2017-10-08T02:14:00,42.805,6.029,4330,1995,200.564,61.332,13.285
2017-10-08T02:17:00,42.805,6.029,4330,1995,200.565,61.332,13.285
2017-10-08T02:20:00,42.805,6.029,4330,1995,200.650,61.358,13.285
2017-10-08T02:23:00,42.805,6.029,4330,1995,200.609,61.345,13.285
2017-10-08T02:26:00,42.805,6.029,4330,1995,200.578,61.336,13.285
2017-10-08T02:29:00,42.805,6.029,4330,1995,200.628,61.351,13.285
2017-10-08T02:32:00,42.805,6.029,4330,1995,200.542,61.325,13.285
2017-10-08T02:35:00,42.805,6.029,4330,1995,200.570,61.333,13.285
2017-10-08T02:38:00,42.805,6.029,4330,1995,200.523,61.319,13.285
2017-10-08T02:41:00,42.805,6.029,4330,1995,200.484,61.307,13.285
2017-10-08T02:44:00,42.805,6.029,4330,1995,200.462,61.300,13.285
2017-10-08T02:47:00,42.805,6.029,4330,1995,200.481,61.306,13.285
2017-10-08T02:50:00,42.805,6.029,4330,1995,200.460,61.300,13.285
2017-10-08T02:53:00,42.805,6.029,4330,1995,200.538,61.324,13.285
2017-10-08T02:56:00,42.805,6.029,4330,1995,200.533,61.322,13.285
2017-10-08T02:59:00,42.805,6.029,4330,1995,200.512,61.316,13.285
2017-10-08T03:02:00,42.805,6.029,4330,1995,200.565,61.332,13.285
2017-10-08T03:05:00,42.805,6.029,4330,1995,200.560,61.330,13.285
2017-10-08T03:08:00,42.805,6.029,4330,1995,200.514,61.316,13.285
2017-10-08T03:11:00,42.805,6.029,4330,1995,200.470,61.303,13.285
2017-10-08T03:14:00,42.805,6.029,4330,1995,200.487,61.308,13.285
2017-10-08T03:17:00,42.805,6.029,4330,1995,200.560,61.330,13.285
2017-10-08T03:20:00,42.805,6.029,4330,1995,200.582,61.337,13.285
2017-10-08T03:23:00,42.805,6.029,4330,1995,200.591,61.340,13.285
2017-10-08T03:26:00,42.805,6.029,4330,1995,200.658,61.360,13.285
2017-10-08T03:29:00,42.805,6.029,4330,1995,200.647,61.357,13.285
2017-10-08T03:32:00,42.805,6.029,4330,1995,200.661,61.361,13.285
2017-10-08T03:35:00,42.805,6.029,4330,1995,200.654,61.359,13.285
2017-10-08T03:38:00,42.805,6.029,4330,1995,200.641,61.355,13.285
2017-10-08T03:41:00,42.805,6.029,4330,1995,200.651,61.358,13.285
2017-10-08T03:44:00,42.805,6.029,4330,1995,200.683,61.368,13.285
2017-10-08T03:47:00,42.805,6.029,4330,1995,200.630,61.352,13.285
2017-10-08T03:50:00,42.805,6.029,4330,1995,200.654,61.359,13.285
2017-10-08T03:53:00,42.805,6.029,4330,1995,200.627,61.351,13.285
2017-10-08T03:56:00,42.805,6.029,4330,1995,200.647,61.357,13.285
2017-10-08T03:59:00,42.805,6.029,4330,1995,200.656,61.360,13.285
2017-10-08T04:02:00,42.805,6.029,4330,1995,200.593,61.341,13.285
2017-10-08T04:05:00,42.805,6.029,4330,1995,200.565,61.332,13.285
2017-10-08T04:08:00,42.805,6.029,4330,1995,200.557,61.330,13.286
2017-10-08T04:11:00,42.805,6.029,4330,1995,200.559,61.330,13.286
2017-10-08T04:14:00,42.805,6.029,4330,1995,200.564,61.332,13.285
2017-10-08T04:17:00,42.805,6.029,4330,1995,200.596,61.342,13.285
2017-10-08T04:20:00,42.805,6.029,4330,1995,200.627,61.351,13.285
2017-10-08T04:23:00,42.805,6.029,4330,1995,200.570,61.334,13.285
2017-10-08T04:26:00,42.805,6.029,4330,1995,200.597,61.342,13.285
2017-10-08T04:29:00,42.805,6.029,4330,1995,200.546,61.326,13.285
2017-10-08T04:32:00,42.805,6.029,4330,1995,200.624,61.350,13.285
2017-10-08T04:35:00,42.805,6.029,4330,1995,200.608,61.345,13.285
2017-10-08T04:38:00,42.805,6.029,4330,1995,200.616,61.347,13.285
2017-10-08T04:41:00,42.805,6.029,4330,1995,200.589,61.339,13.285
2017-10-08T04:44:00,42.805,6.029,4330,1995,200.541,61.325,13.285
2017-10-08T04:47:00,42.805,6.029,4330,1995,200.515,61.317,13.285
2017-10-08T04:50:00,42.805,6.029,4330,1995,200.482,61.306,13.285
2017-10-08T04:53:00,42.805,6.029,4330,1995,200.525,61.320,13.285
2017-10-08T04:56:00,42.805,6.029,4330,1995,200.509,61.315,13.285
2017-10-08T04:59:00,42.805,6.029,4330,1995,200.553,61.328,13.285
2017-10-08T05:02:00,42.805,6.029,4330,1995,200.537,61.323,13.285
2017-10-08T05:05:00,42.805,6.029,4330,1995,200.515,61.317,13.285
2017-10-08T05:08:00,42.805,6.029,4330,1995,200.508,61.314,13.285
2017-10-08T05:11:00,42.805,6.029,4330,1995,200.568,61.333,13.285
2017-10-08T05:14:00,42.805,6.029,4330,1995,200.562,61.331,13.285
2017-10-08T05:17:00,42.805,6.029,4330,1995,200.588,61.339,13.285
2017-10-08T05:20:00,42.805,6.029,4330,1995,200.560,61.330,13.285
2017-10-08T05:23:00,42.805,6.029,4330,1995,200.534,61.322,13.285
2017-10-08T05:26:00,42.805,6.029,4330,1995,200.538,61.324,13.285
2017-10-08T05:29:00,42.805,6.029,4330,1995,200.506,61.314,13.285
2017-10-08T05:32:00,42.805,6.029,4330,1995,200.560,61.330,13.285
2017-10-08T05:35:00,42.805,6.029,4330,1995,200.568,61.333,13.285
2017-10-08T05:38:00,42.805,6.029,4330,1995,200.575,61.335,13.285
2017-10-08T05:41:00,42.805,6.029,4330,1995,200.536,61.323,13.285
2017-10-08T05:44:00,42.805,6.029,4330,1995,200.449,61.296,13.285
2017-10-08T05:47:00,42.805,6.029,4330,1995,200.480,61.306,13.285
2017-10-08T05:50:00,42.805,6.029,4330,1995,200.434,61.292,13.286
2017-10-08T05:53:00,42.805,6.029,4330,1995,200.447,61.296,13.286
2017-10-08T05:56:00,42.805,6.029,4330,1995,200.508,61.315,13.285
2017-10-08T05:59:00,42.805,6.029,4330,1995,200.433,61.292,13.285
2017-10-08T06:02:00,42.805,6.029,4330,1995,200.455,61.298,13.286
2017-10-08T06:05:00,42.805,6.029,4330,1995,200.396,61.280,13.285
2017-10-08T06:08:00,42.805,6.029,4330,1995,200.438,61.293,13.285
2017-10-08T06:11:00,42.805,6.029,4330,1995,200.477,61.305,13.285
2017-10-08T06:14:00,42.805,6.029,4330,1995,200.485,61.307,13.285
2017-10-08T06:17:00,42.805,6.029,4330,1995,200.461,61.300,13.285
2017-10-08T06:20:00,42.805,6.029,4330,1995,200.446,61.296,13.286
2017-10-08T06:23:00,42.805,6.029,4330,1995,200.441,61.294,13.285
2017-10-08T06:26:00,42.805,6.029,4330,1995,200.424,61.289,13.285
2017-10-08T06:29:00,42.805,6.029,4330,1995,200.428,61.290,13.285
2017-10-08T06:32:00,42.805,6.029,4330,1995,200.447,61.296,13.285
2017-10-08T06:35:00,42.805,6.029,4330,1995,200.419,61.287,13.285
2017-10-08T06:38:00,42.805,6.029,4330,1995,200.421,61.288,13.285
2017-10-08T06:41:00,42.805,6.029,4330,1995,200.485,61.308,13.285
2017-10-08T06:44:00,42.805,6.029,4330,1995,200.405,61.283,13.285
2017-10-08T06:47:00,42.805,6.029,4330,1995,200.510,61.315,13.285
2017-10-08T06:50:00,42.805,6.029,4330,1995,200.560,61.330,13.285
2017-10-08T06:53:00,42.805,6.029,4330,1995,200.509,61.315,13.285
2017-10-08T06:56:00,42.805,6.029,4330,1995,200.451,61.297,13.285
2017-10-08T06:59:00,42.805,6.029,4330,1995,200.390,61.278,13.285
2017-10-08T07:02:00,42.805,6.029,4330,1995,200.349,61.266,13.285
2017-10-08T07:05:00,42.805,6.029,4330,1995,200.334,61.261,13.285
2017-10-08T07:08:00,42.805,6.029,4330,1995,200.289,61.248,13.285
2017-10-08T07:11:00,42.805,6.029,4330,1995,200.298,61.250,13.285
2017-10-08T07:14:00,42.805,6.029,4330,1995,200.327,61.259,13.285
2017-10-08T07:17:00,42.805,6.029,4330,1995,200.228,61.229,13.285
2017-10-08T07:20:00,42.805,6.029,4330,1995,200.208,61.223,13.285
2017-10-08T07:23:00,42.805,6.029,4330,1995,200.225,61.228,13.285
2017-10-08T07:26:00,42.805,6.029,4330,1995,200.263,61.239,13.285
2017-10-08T07:29:00,42.805,6.029,4330,1995,200.239,61.232,13.285
2017-10-08T07:32:00,42.805,6.029,4330,1995,200.280,61.245,13.285
2017-10-08T07:35:00,42.805,6.029,4330,1995,200.235,61.231,13.285
2017-10-08T07:38:00,42.805,6.029,4330,1995,200.210,61.223,13.285
2017-10-08T07:41:00,42.805,6.029,4330,1995,200.135,61.200,13.285
2017-10-08T07:44:00,42.805,6.029,4330,1995,200.178,61.213,13.285
2017-10-08T07:47:00,42.805,6.029,4330,1995,200.159,61.208,13.285
2017-10-08T07:50:00,42.805,6.029,4330,1995,200.098,61.189,13.285
2017-10-08T07:53:00,42.805,6.029,4330,1995,200.129,61.199,13.285
2017-10-08T07:56:00,42.805,6.029,4330,1995,200.130,61.199,13.285
2017-10-08T07:59:00,42.805,6.029,4330,1995,200.161,61.209,13.285
2017-10-08T08:02:00,42.805,6.029,4330,1995,200.228,61.229,13.285
2017-10-08T08:05:00,42.805,6.029,4330,1995,200.176,61.213,13.285
2017-10-08T08:08:00,42.805,6.029,4330,1995,200.124,61.197,13.285
2017-10-08T08:11:00,42.805,6.029,4330,1995,200.106,61.192,13.285
2017-10-08T08:14:00,42.805,6.029,4330,1995,200.104,61.191,13.285
2017-10-08T08:17:00,42.805,6.029,4330,1995,200.194,61.218,13.285
2017-10-08T08:20:00,42.805,6.029,4330,1995,200.173,61.212,13.285
2017-10-08T08:23:00,42.805,6.029,4330,1995,200.200,61.220,13.285
2017-10-08T08:26:00,42.805,6.029,4330,1995,200.171,61.211,13.285
2017-10-08T08:29:00,42.805,6.029,4330,1995,200.204,61.221,13.285
2017-10-08T08:32:00,42.805,6.029,4330,1995,200.142,61.203,13.285
2017-10-08T08:35:00,42.805,6.029,4330,1995,200.120,61.196,13.285
2017-10-08T08:38:00,42.805,6.029,4330,1995,200.180,61.214,13.285
2017-10-08T08:41:00,42.805,6.029,4330,1995,200.218,61.226,13.285
2017-10-08T08:44:00,42.805,6.029,4330,1995,200.190,61.217,13.285
2017-10-08T08:47:00,42.805,6.029,4330,1995,200.196,61.219,13.285
2017-10-08T08:50:00,42.805,6.029,4330,1995,200.205,61.222,13.285
2017-10-08T08:53:00,42.805,6.029,4330,1995,200.192,61.218,13.285
2017-10-08T08:56:00,42.805,6.029,4330,1995,200.251,61.236,13.285
2017-10-08T08:59:00,42.805,6.029,4330,1995,200.246,61.234,13.285
2017-10-08T09:02:00,42.805,6.029,4330,1995,200.209,61.223,13.285
2017-10-08T09:05:00,42.805,6.029,4330,1995,200.130,61.199,13.285
2017-10-08T09:08:00,42.805,6.029,4330,1995,200.120,61.196,13.285
2017-10-08T09:11:00,42.805,6.029,4330,1995,200.136,61.201,13.285
2017-10-08T09:14:00,42.805,6.029,4330,1995,200.152,61.206,13.285
2017-10-08T09:17:00,42.805,6.029,4330,1995,200.201,61.221,13.285
2017-10-08T09:20:00,42.805,6.029,4330,1995,200.240,61.232,13.285
2017-10-08T09:23:00,42.805,6.029,4330,1995,200.144,61.203,13.285
2017-10-08T09:26:00,42.805,6.029,4330,1995,200.169,61.211,13.285
2017-10-08T09:29:00,42.805,6.029,4330,1995,200.234,61.231,13.285
2017-10-08T09:32:00,42.805,6.029,4330,1995,200.136,61.201,13.285
2017-10-08T09:35:00,42.805,6.029,4330,1995,200.146,61.204,13.285
2017-10-08T09:38:00,42.805,6.029,4330,1995,200.176,61.213,13.285
2017-10-08T09:41:00,42.805,6.029,4330,1995,200.163,61.209,13.285
2017-10-08T09:44:00,42.805,6.029,4330,1995,200.156,61.207,13.285
2017-10-08T09:46:59,42.805,6.029,4330,1995,200.170,61.211,13.285
2017-10-08T09:49:59,42.805,6.029,4330,1995,200.112,61.193,13.285
2017-10-08T09:52:59,42.805,6.029,4330,1995,200.197,61.219,13.285
2017-10-08T09:55:59,42.805,6.029,4330,1995,200.144,61.203,13.285
2017-10-08T09:58:59,42.805,6.029,4330,1995,200.142,61.202,13.285
2017-10-08T10:01:59,42.805,6.029,4330,1995,200.114,61.194,13.285
2017-10-08T10:04:59,42.805,6.029,4330,1995,200.117,61.195,13.285
2017-10-08T10:07:59,42.805,6.029,4330,1995,200.126,61.197,13.285
2017-10-08T10:10:59,42.805,6.029,4330,1995,200.174,61.213,13.285
2017-10-08T10:13:59,42.805,6.029,4330,1995,200.146,61.204,13.285
2017-10-08T10:16:59,42.805,6.029,4330,1995,200.144,61.203,13.285
2017-10-08T10:19:59,42.805,6.029,4330,1995,200.175,61.213,13.285
2017-10-08T10:22:59,42.805,6.029,4330,1995,200.168,61.210,13.285
2017-10-08T10:25:59,42.805,6.029,4330,1995,200.218,61.226,13.285
2017-10-08T10:28:59,42.805,6.029,4330,1995,200.162,61.208,13.285
2017-10-08T10:31:59,42.805,6.029,4330,1995,200.218,61.226,13.285
2017-10-08T10:34:59,42.805,6.029,4330,1995,200.182,61.215,13.285
2017-10-08T10:37:59,42.805,6.029,4330,1995,200.163,61.209,13.285
2017-10-08T10:40:59,42.805,6.029,4330,1995,200.141,61.202,13.285
2017-10-08T10:43:59,42.805,6.029,4330,1995,200.197,61.219,13.285
2017-10-08T10:46:59,42.805,6.029,4330,1995,200.143,61.203,13.285
2017-10-08T10:49:59,42.805,6.029,4330,1995,200.115,61.194,13.285
2017-10-08T10:52:59,42.805,6.029,4330,1995,200.104,61.191,13.285
2017-10-08T10:55:59,42.805,6.029,4330,1995,200.178,61.213,13.285
2017-10-08T10:58:59,42.805,6.029,4330,1995,200.183,61.215,13.285
2017-10-08T11:01:59,42.805,6.029,4330,1995,200.218,61.226,13.285
2017-10-08T11:04:59,42.805,6.029,4330,1995,200.187,61.216,13.285
2017-10-08T11:07:59,42.805,6.029,4330,1995,200.172,61.211,13.285
2017-10-08T11:10:59,42.805,6.029,4330,1995,200.219,61.226,13.285
2017-10-08T11:13:59,42.805,6.029,4330,1995,200.239,61.232,13.285
2017-10-08T11:16:59,42.805,6.029,4330,1995,200.158,61.208,13.285
2017-10-08T11:19:59,42.805,6.029,4330,1995,200.130,61.199,13.285
2017-10-08T11:22:59,42.805,6.029,4330,1995,200.108,61.192,13.285
2017-10-08T11:25:59,42.805,6.029,4330,1995,200.128,61.198,13.285
2017-10-08T11:28:59,42.805,6.029,4330,1995,200.186,61.216,13.285
2017-10-08T11:31:59,42.805,6.029,4330,1995,200.177,61.213,13.285
2017-10-08T11:34:59,42.805,6.029,4330,1995,200.202,61.221,13.285
2017-10-08T11:37:59,42.805,6.029,4330,1995,200.201,61.220,13.285
2017-10-08T11:40:59,42.805,6.029,4330,1995,200.141,61.202,13.285
2017-10-08T11:43:59,42.805,6.029,4330,1995,200.065,61.179,13.285
2017-10-08T11:46:59,42.805,6.029,4330,1995,200.085,61.185,13.285
2017-10-08T11:49:59,42.805,6.029,4330,1995,200.138,61.201,13.285
2017-10-08T11:52:59,42.805,6.029,4330,1995,200.152,61.206,13.285
2017-10-08T11:55:59,42.805,6.029,4330,1995,200.123,61.197,13.285
2017-10-08T11:58:59,42.805,6.029,4330,1995,200.094,61.188,13.285
2017-10-08T12:01:59,42.805,6.029,4330,1995,200.145,61.203,13.285
2017-10-08T12:04:59,42.805,6.029,4330,1995,200.152,61.206,13.285
2017-10-08T12:07:59,42.805,6.029,4330,1995,200.088,61.186,13.285
2017-10-08T12:10:59,42.805,6.029,4330,1995,200.165,61.210,13.285
2017-10-08T12:13:59,42.805,6.029,4330,1995,200.059,61.177,13.285
2017-10-08T12:16:59,42.805,6.029,4330,1995,200.151,61.205,13.285
2017-10-08T12:19:59,42.805,6.029,4330,1995,200.096,61.188,13.285
2017-10-08T12:22:59,42.805,6.029,4330,1995,200.096,61.188,13.285
2017-10-08T12:25:59,42.805,6.029,4330,1995,200.097,61.189,13.285
2017-10-08T12:28:59,42.805,6.029,4330,1995,200.129,61.198,13.285
2017-10-08T12:31:59,42.805,6.029,4330,1995,200.143,61.203,13.285
2017-10-08T12:34:59,42.805,6.029,4330,1995,200.050,61.174,13.285
2017-10-08T12:37:59,42.805,6.029,4330,1995,200.030,61.168,13.285
2017-10-08T12:40:59,42.805,6.029,4330,1995,200.173,61.212,13.285
2017-10-08T12:43:59,42.805,6.029,4330,1995,200.228,61.229,13.285
2017-10-08T12:46:59,42.805,6.029,4330,1995,200.237,61.232,13.285
2017-10-08T12:49:59,42.805,6.029,4330,1995,200.278,61.244,13.285
2017-10-08T12:52:59,42.805,6.029,4330,1995,200.212,61.224,13.285
2017-10-08T12:55:59,42.805,6.029,4330,1995,200.218,61.226,13.285
2017-10-08T12:58:59,42.805,6.029,4330,1995,200.311,61.254,13.285
2017-10-08T13:01:59,42.805,6.029,4330,1995,200.299,61.251,13.285
2017-10-08T13:04:59,42.805,6.029,4330,1995,200.326,61.259,13.285
2017-10-08T13:07:59,42.805,6.029,4330,1995,200.328,61.259,13.285
2017-10-08T13:10:59,42.805,6.029,4330,1995,200.271,61.242,13.285
2017-10-08T13:13:59,42.805,6.029,4330,1995,200.317,61.256,13.285
2017-10-08T13:16:59,42.805,6.029,4330,1995,200.344,61.264,13.285
2017-10-08T13:19:59,42.805,6.029,4330,1995,200.331,61.260,13.285
2017-10-08T13:22:59,42.805,6.029,4330,1995,200.446,61.296,13.285
2017-10-08T13:25:59,42.805,6.029,4330,1995,200.431,61.291,13.285
2017-10-08T13:28:59,42.805,6.029,4330,1995,200.375,61.274,13.285
2017-10-08T13:31:59,42.805,6.029,4330,1995,200.387,61.277,13.285
2017-10-08T13:34:59,42.805,6.029,4330,1995,200.397,61.281,13.285
2017-10-08T13:37:59,42.805,6.029,4330,1995,200.350,61.266,13.285
2017-10-08T13:40:59,42.805,6.029,4330,1995,200.412,61.285,13.285
2017-10-08T13:43:59,42.805,6.029,4330,1995,200.355,61.268,13.285
2017-10-08T13:46:59,42.805,6.029,4330,1995,200.272,61.242,13.285
2017-10-08T13:49:59,42.805,6.029,4330,1995,200.235,61.231,13.285
2017-10-08T13:52:59,42.805,6.029,4330,1995,200.315,61.256,13.285
2017-10-08T13:55:59,42.805,6.029,4330,1995,200.356,61.268,13.285
2017-10-08T13:58:59,42.805,6.029,4330,1995,200.335,61.262,13.285
2017-10-08T14:01:59,42.805,6.029,4330,1995,200.389,61.278,13.285
2017-10-08T14:04:59,42.805,6.029,4330,1995,200.273,61.243,13.285
2017-10-08T14:07:59,42.805,6.029,4330,1995,200.280,61.245,13.285
2017-10-08T14:10:59,42.805,6.029,4330,1995,200.408,61.284,13.285
2017-10-08T14:13:59,42.805,6.029,4330,1995,200.426,61.289,13.285
2017-10-08T14:16:59,42.805,6.029,4330,1995,200.419,61.287,13.285
2017-10-08T14:19:59,42.805,6.029,4330,1995,200.323,61.258,13.286
2017-10-08T14:22:59,42.805,6.029,4330,1995,200.276,61.244,13.285
2017-10-08T14:25:59,42.805,6.029,4330,1995,200.267,61.241,13.285
2017-10-08T14:28:59,42.805,6.029,4330,1995,200.322,61.258,13.285
2017-10-08T14:31:59,42.805,6.029,4330,1995,200.386,61.277,13.285
2017-10-08T14:34:59,42.805,6.029,4330,1995,200.355,61.268,13.285
2017-10-08T14:37:59,42.805,6.029,4330,1995,200.257,61.238,13.285
2017-10-08T14:40:59,42.805,6.029,4330,1995,200.286,61.247,13.285
2017-10-08T14:43:59,42.805,6.029,4330,1995,200.369,61.272,13.286
2017-10-08T14:46:59,42.805,6.029,4330,1995,200.258,61.238,13.286
2017-10-08T14:49:59,42.805,6.029,4330,1995,200.314,61.255,13.286
2017-10-08T14:52:59,42.805,6.029,4330,1995,200.371,61.273,13.285
2017-10-08T14:55:59,42.805,6.029,4330,1995,200.279,61.244,13.285
2017-10-08T14:58:59,42.805,6.029,4330,1995,200.346,61.265,13.285
2017-10-08T15:01:59,42.805,6.029,4330,1995,200.247,61.235,13.285
2017-10-08T15:04:59,42.805,6.029,4330,1995,200.242,61.233,13.285
2017-10-08T15:07:59,42.805,6.029,4330,1995,200.297,61.250,13.285
2017-10-08T15:10:59,42.805,6.029,4330,1995,200.410,61.285,13.285
2017-10-08T15:13:59,42.805,6.029,4330,1995,200.336,61.262,13.286
2017-10-08T15:16:59,42.805,6.029,4330,1995,200.247,61.235,13.285
2017-10-08T15:19:59,42.805,6.029,4330,1995,200.410,61.284,13.285
2017-10-08T15:22:59,42.805,6.029,4330,1995,200.402,61.282,13.285
2017-10-08T15:25:59,42.805,6.029,4330,1995,200.320,61.257,13.285
2017-10-08T15:28:59,42.805,6.029,4330,1995,200.289,61.248,13.285
2017-10-08T15:31:59,42.805,6.029,4330,1995,200.357,61.269,13.285
2017-10-08T15:34:59,42.805,6.029,4330,1995,200.324,61.258,13.285
2017-10-08T15:37:59,42.805,6.029,4330,1995,200.342,61.264,13.285
2017-10-08T15:40:59,42.805,6.029,4330,1995,200.343,61.264,13.285
2017-10-08T15:43:59,42.805,6.029,4330,1995,200.376,61.274,13.285
2017-10-08T15:46:59,42.805,6.029,4330,1995,200.350,61.266,13.285
2017-10-08T15:49:59,42.805,6.029,4330,1995,200.286,61.246,13.285
2017-10-08T15:52:59,42.805,6.029,4330,1995,200.345,61.265,13.285
2017-10-08T15:55:59,42.805,6.029,4330,1995,200.383,61.276,13.285
2017-10-08T15:58:59,42.805,6.029,4330,1995,200.238,61.232,13.286
2017-10-08T16:01:59,42.805,6.029,4330,1995,200.260,61.239,13.285
2017-10-08T16:04:59,42.805,6.029,4330,1995,200.190,61.218,13.285
2017-10-08T16:07:59,42.805,6.029,4330,1995,200.226,61.228,13.285
2017-10-08T16:10:59,42.805,6.029,4330,1995,200.233,61.230,13.285
2017-10-08T16:13:59,42.805,6.029,4330,1995,200.228,61.229,13.285
2017-10-08T16:16:59,42.805,6.029,4330,1995,200.223,61.227,13.285
2017-10-08T16:19:59,42.805,6.029,4330,1995,200.251,61.236,13.285
2017-10-08T16:22:59,42.805,6.029,4330,1995,200.296,61.249,13.285
2017-10-08T16:25:59,42.805,6.029,4330,1995,200.350,61.266,13.285
2017-10-08T16:28:59,42.805,6.029,4330,1995,200.276,61.244,13.285
2017-10-08T16:31:59,42.805,6.029,4330,1995,200.263,61.239,13.285
2017-10-08T16:34:59,42.805,6.029,4330,1995,200.193,61.218,13.285
2017-10-08T16:37:59,42.805,6.029,4330,1995,200.256,61.237,13.285
2017-10-08T16:40:59,42.805,6.029,4330,1995,200.327,61.259,13.285
2017-10-08T16:43:59,42.805,6.029,4330,1995,200.265,61.240,13.285
2017-10-08T16:46:59,42.805,6.029,4330,1995,200.255,61.237,13.285
2017-10-08T16:49:59,42.805,6.029,4330,1995,200.276,61.244,13.285
2017-10-08T16:52:59,42.805,6.029,4330,1995,200.318,61.256,13.285
2017-10-08T16:55:59,42.805,6.029,4330,1995,200.307,61.253,13.286
2017-10-08T16:58:59,42.805,6.029,4330,1995,200.197,61.220,13.285
2017-10-08T17:01:59,42.805,6.029,4330,1995,200.195,61.219,13.286
2017-10-08T17:04:59,42.805,6.029,4330,1995,200.171,61.212,13.285
2017-10-08T17:07:59,42.805,6.029,4330,1995,200.259,61.239,13.285
2017-10-08T17:10:59,42.805,6.029,4330,1995,200.197,61.220,13.285
2017-10-08T17:13:59,42.805,6.029,4330,1995,200.148,61.205,13.286
2017-10-08T17:16:59,42.805,6.029,4330,1995,200.061,61.178,13.286
2017-10-08T17:19:59,42.805,6.029,4330,1995,200.010,61.163,13.286
2017-10-08T17:22:59,42.805,6.029,4330,1995,200.080,61.184,13.285
2017-10-08T17:25:59,42.805,6.029,4330,1995,200.010,61.162,13.285
2017-10-08T17:28:59,42.805,6.029,4330,1995,200.055,61.176,13.286
2017-10-08T17:31:59,42.805,6.029,4330,1995,200.005,61.161,13.285
2017-10-08T17:34:59,42.805,6.029,4330,1995,200.082,61.184,13.286
2017-10-08T17:37:59,42.805,6.029,4330,1995,200.193,61.218,13.285
2017-10-08T17:40:59,42.805,6.029,4330,1995,200.051,61.175,13.286
2017-10-08T17:43:59,42.805,6.029,4330,1995,200.072,61.181,13.285
2017-10-08T17:46:59,42.805,6.029,4330,1995,200.158,61.208,13.285
2017-10-08T17:49:59,42.805,6.029,4330,1995,200.130,61.199,13.286
2017-10-08T17:52:59,42.805,6.029,4330,1995,200.027,61.168,13.286
2017-10-08T17:55:59,42.805,6.029,4330,1995,200.153,61.206,13.286
2017-10-08T17:58:59,42.805,6.029,4330,1995,200.040,61.172,13.286
2017-10-08T18:01:59,42.805,6.029,4330,1995,200.016,61.164,13.286
2017-10-08T18:04:59,42.805,6.029,4330,1995,199.990,61.156,13.286
2017-10-08T18:07:59,42.805,6.029,4330,1995,199.966,61.149,13.286